SCP
0 0 0 0 0 0 1 1 1 1 1 1 1 1 0 0 0 0 0 0 0 0 0 0 0 0 0 0 0 0 0 0 0 0 0 0 0 0 0 0 0 0 0
0 0 0 0 0 0 1 1 1 1 1 1 1 1 1 0 0 0 1 1 1 1 0 0 0 0 0 0 0 0 0 0 0 0 0 0 0 0 0 0 0 0 0
0 0 0 0 0 0 0 1 1 1 1 1 1 1 1 1 1 1 1 1 0 1 1 0 0 0 0 1 0 0 0 0 0 0 0 0 0 0 0 0 0 0 0
0 0 0 0 0 0 0 0 0 1 1 1 1 1 1 1 1 1 1 0 0 0 0 0 0 0 0 0 0 0 0 0 0 0 0 0 0 0 0 0 0 0 0
0 0 0 0 0 0 0 0 0 0 0 1 1 1 1 0 0 0 0 0 0 0 0 0 0 0 0 0 0 0 0 0 0 0 0 0 0 0 0 0 0 0 0
0 0 0 0 0 0 0 0 0 0 0 0 0 0 0 0 0 0 0 0 0 0 0 0 0 0 0 0 0 0 0 0 0 0 0 0 0 0 0 0 0 0 0
0 0 0 0 0 0 0 0 0 0 0 0 0 0 0 0 0 0 0 0 0 0 0 0 0 0 0 0 0 0 0 0 0 0 0 0 0 0 0 0 0 0 0
0 0 0 0 0 0 0 0 0 0 0 0 0 0 0 0 0 0 0 0 0 0 0 0 0 0 0 0 0 0 0 0 0 0 0 0 0 0 0 0 0 0 0
0 0 0 0 0 0 0 0 0 0 0 0 0 0 0 0 0 0 0 0 0 0 0 0 0 0 0 0 0 0 0 0 0 0 0 0 0 0 0 0 0 0 0
0 0 0 0 0 0 0 0 0 0 0 0 0 0 0 0 0 0 0 0 0 0 0 0 0 0 0 0 0 0 0 0 0 0 0 0 0 0 0 0 0 0 0
0 0 0 0 0 0 0 0 0 0 0 0 0 0 0 0 0 0 0 0 0 0 0 0 0 0 0 0 0 0 0 0 0 0 0 0 0 0 0 0 0 0 0
-0 0 0 0 0 0 0 0 0 0 0 0 0 0 0 0 0 0 0 0 0 0 0 0 0 0 0 0 0 0 0 0 0 0 0 0 0 0 0 0 0 0 0
0 -0 -0 0 0 0 0 0 0 0 0 0 0 0 0 0 0 0 0 0 0 0 0 0 0 0 0 0 0 0 0 0 0 0 0 0 0 0 0 0 0 0 0
0 0 0 0 0 0 0 0 0 0 0 0 0 0 0 0 0 0 0 0 0 0 0 0 0 0 0 0 0 0 0 0 0 0 0 0 0 0 0 0 0 0 0
0 0 0 0 0 0 0 0 0 0 0 0 0 0 0 0 0 0 0 0 0 0 0 0 0 0 0 0 0 0 0 0 0 0 0 0 0 0 0 0 0 0 0
0 0 0 0 0 0 0 0 0 0 0 0 0 0 0 0 0 0 0 0 0 0 0 0 0 0 0 0 0 0 0 0 0 0 0 0 0 0 0 0 0 0 0
0 0 0 0 0 0 0 0 0 0 0 0 0 0 0 0 0 0 0 0 0 0 0 0 0 0 0 0 0 0 0 0 0 0 0 0 0 0 0 0 0 0 0
0 0 0 0 0 0 0 0 0 0 0 0 0 0 0 0 0 0 0 0 0 0 0 0 0 0 0 0 0 0 0 0 0 0 0 0 0 0 0 0 0 0 0
0 0 0 0 0 0 0 0 0 0 0 0 0 0 0 0 0 0 0 0 0 0 0 0 0 0 0 0 0 0 0 0 0 0 0 0 0 0 0 0 0 0 0
0 0 0 0 0 0 0 0 0 0 0 0 0 0 0 0 0 0 0 0 0 0 0 0 0 0 0 0 0 0 0 0 0 0 0 0 0 0 0 0 0 0 0
0 0 0 0 0 0 0 0 0 0 0 0 0 0 0 0 0 0 0 0 0 0 0 0 0 0 0 0 0 0 0 0 0 0 0 0 0 0 0 0 0 0 0
0 0 0 0 0 0 0 0 0 0 0 0 0 0 0 0 0 0 0 0 0 0 0 0 0 0 0 0 0 0 0 0 0 0 0 0 0 0 0 0 0 0 0
0 0 0 0 0 0 0 0 0 0 0 0 0 0 0 0 0 0 0 0 0 0 0 0 0 0 0 0 0 0 0 0 0 0 0 0 0 0 0 0 0 0 0
0 0 0 0 0 0 0 0 0 0 0 0 0 0 0 0 0 0 0 0 0 0 0 0 0 0 0 0 0 0 0 0 0 0 0 0 0 0 0 0 0 0 0
0 0 0 0 0 0 0 0 0 0 0 0 0 0 0 0 0 0 0 0 0 0 0 0 0 0 0 0 0 0 0 0 0 0 0 0 0 0 0 0 0 0 0
0 0 0 0 0 0 0 0 0 0 0 0 0 0 0 0 0 0 0 0 0 0 0 0 0 0 0 0 0 0 0 0 0 0 0 0 0 0 0 0 0 0 0
Wind_Speed_500mb
36 42 42 26 29 31 38 37 42 39 37 42 50 44 42 33 32 34 30 27 26 23 25 26 23 24 29 28 27 30 32 36 39 44 48 46 42 35 35 38 38 35 26
57 45 44 35 31 38 39 39 41 41 40 40 40 41 38 34 31 30 33 37 38 35 33 33 31 28 31 33 34 34 39 42 42 46 46 47 42 44 26 31 39 33 29
43 55 48 42 41 41 41 43 43 41 40 42 39 36 33 31 33 32 33 39 34 31 32 35 35 37 39 42 43 46 47 52 51 52 51 31 29 23 25 22 27 30 35
16 22 42 48 47 45 44 44 43 43 39 39 38 39 38 36 33 35 38 40 35 30 33 36 39 43 45 46 49 48 52 54 56 53 50 54 53 50 31 35 36 33 36
26 14 23 39 43 48 43 42 42 46 48 47 43 40 39 35 31 33 37 36 36 35 34 37 40 43 47 49 50 48 48 47 48 48 46 46 46 47 51 50 49 42 39
37 36 31 37 38 42 42 41 37 36 41 45 49 45 41 41 42 43 43 41 38 38 37 38 42 45 47 47 46 45 45 44 45 45 42 40 38 34 36 40 43 43 41
40 40 42 39 41 46 41 42 42 37 33 37 42 44 43 40 40 38 36 36 35 37 42 43 42 43 44 45 45 45 46 47 49 48 41 37 38 39 46 47 38 43 44
7 12 22 32 52 53 52 47 45 42 37 37 44 45 38 38 40 41 38 33 35 40 47 46 43 43 45 45 46 46 45 45 44 42 37 37 41 38 45 48 47 42 37
4 13 17 28 26 42 52 53 52 48 46 44 49 48 40 44 36 36 36 39 43 44 45 46 46 45 44 44 44 43 42 42 43 42 36 36 34 34 39 36 39 41 36
14 12 11 29 32 29 40 45 46 51 46 47 47 46 40 37 39 42 41 41 43 43 44 45 45 44 43 42 40 39 39 37 37 31 23 22 25 33 29 32 29 33 32
17 24 15 13 24 31 38 39 38 48 49 51 54 51 38 41 39 36 37 39 43 45 44 43 41 41 39 37 35 36 33 30 28 25 27 28 30 30 31 30 34 36 39
24 23 20 18 19 27 35 38 41 44 44 43 41 37 31 28 28 33 37 39 41 43 41 40 39 41 38 35 33 33 29 27 25 26 29 30 31 31 31 30 36 39 36
25 23 18 18 20 20 32 36 43 44 40 41 39 34 32 32 31 34 36 38 39 42 41 40 40 41 38 35 32 33 32 30 30 29 27 24 26 26 27 29 27 27 25
28 22 23 22 22 20 23 32 39 42 42 39 36 33 30 29 29 34 37 41 42 41 41 42 40 37 36 34 32 33 34 32 32 31 30 28 28 27 25 25 24 23 23
36 35 32 27 25 27 25 29 32 39 38 37 35 32 31 31 33 37 40 41 40 41 41 37 35 36 34 35 32 31 33 30 30 28 28 26 26 25 23 19 17 18 19
37 37 35 32 31 37 36 37 38 40 39 38 35 33 33 33 34 37 40 38 36 36 35 36 35 33 32 30 30 29 28 26 25 21 21 19 16 13 12 15 17 17 14
40 40 36 35 40 42 46 43 44 43 40 38 36 35 33 34 36 37 36 30 31 30 29 30 27 30 28 28 23 25 24 21 19 18 17 15 15 12 11 10 10 11 13
42 41 38 31 37 39 46 47 44 46 44 41 37 35 34 34 36 35 32 30 29 26 27 27 28 28 26 22 20 19 20 20 19 17 14 16 15 12 10 12 12 12 10
46 45 33 30 24 23 41 49 52 48 48 44 40 38 36 36 37 32 29 29 26 24 25 26 26 27 23 19 19 19 17 15 14 12 13 15 13 11 13 15 16 13 13
51 48 39 34 35 27 35 50 56 53 52 49 43 39 37 36 37 31 29 25 22 23 25 25 25 28 21 21 19 16 17 16 14 13 13 15 15 13 17 18 17 15 14
50 47 37 27 23 23 36 49 51 52 50 45 40 39 38 36 33 29 26 23 24 26 25 25 26 23 21 20 18 17 16 16 15 14 15 14 15 17 16 17 16 14 16
46 47 37 30 24 25 39 45 49 46 41 41 41 39 37 36 29 27 26 26 28 29 28 27 26 25 23 22 20 20 18 16 16 16 16 16 16 16 15 14 15 13 15
42 49 37 30 24 18 27 32 32 35 34 37 37 37 37 33 28 27 27 30 31 32 30 30 29 29 27 24 21 20 19 19 18 17 18 19 18 17 14 14 14 13 15
42 47 42 30 23 15 13 19 22 23 27 31 35 37 35 31 30 30 29 31 33 32 34 34 32 30 29 26 23 22 23 22 21 21 21 21 19 18 18 17 17 16 17
47 43 47 35 23 18 14 17 17 15 20 26 32 33 31 31 30 31 30 30 32 33 34 33 30 32 30 21 23 23 24 24 24 27 25 24 23 22 21 21 19 19 19
51 43 48 41 37 33 28 25 24 22 24 28 27 31 29 32 31 29 26 28 33 35 37 36 37 34 32 29 28 27 27 27 28 32 29 27 26 25 23 23 23 23 23
Wind_Direction_500mb
248 218 187 203 188 193 202 215 209 208 205 202 204 209 207 211 218 207 218 219 232 234 245 246 235 243 246 250 256 269 277 275 280 284 283 284 284 282 284 283 286 287 276
240 206 203 216 228 211 200 208 221 216 215 217 217 219 216 218 228 225 223 231 231 230 236 250 254 243 256 258 262 263 270 272 275 278 281 288 289 297 295 271 265 267 265
245 217 210 216 222 217 209 205 220 225 220 222 221 220 212 219 215 221 226 237 237 233 244 252 255 259 255 257 263 267 267 273 274 277 274 282 282 279 304 284 260 268 284
282 148 207 202 210 216 214 209 201 213 219 216 214 216 221 221 230 230 233 244 249 253 258 262 265 269 271 271 273 274 271 268 269 269 266 266 271 280 285 268 270 278 278
250 245 200 213 210 212 212 210 215 217 209 215 218 224 227 227 222 229 236 248 259 264 263 268 273 276 279 281 281 279 278 276 274 272 265 264 264 269 265 273 272 271 272
236 230 236 219 222 216 217 213 213 220 228 224 221 228 230 231 238 240 246 251 257 264 268 272 276 278 278 277 277 278 278 278 277 276 273 262 258 264 264 270 269 269 268
226 229 230 235 227 232 228 225 221 222 226 230 231 227 224 234 241 242 244 250 259 268 273 278 280 278 276 276 277 278 279 279 277 280 276 271 265 259 265 272 268 273 269
278 248 222 232 228 236 239 230 224 225 224 226 228 225 232 232 234 234 239 250 261 266 277 282 280 277 278 280 280 280 280 277 277 274 266 265 259 252 253 260 263 265 269
304 250 263 258 229 230 240 234 233 234 231 227 222 221 227 252 233 240 253 261 265 268 273 275 277 279 280 281 281 281 277 274 272 276 272 270 267 258 261 261 262 260 238
19 350 256 256 254 228 237 241 237 231 222 219 222 223 222 233 245 249 251 258 267 271 273 275 277 279 280 281 282 279 275 269 268 267 262 267 264 255 257 246 255 249 241
356 342 315 272 260 223 230 240 225 224 218 215 214 219 221 222 227 244 259 268 274 275 275 277 278 278 278 279 279 279 280 274 266 258 253 252 249 252 258 257 252 255 261
353 330 319 296 277 224 226 218 208 217 224 222 221 221 225 234 241 250 258 264 267 272 274 276 275 275 275 275 273 274 274 272 266 255 245 245 247 247 251 251 247 247 250
341 328 310 300 266 250 220 215 212 221 220 212 211 218 226 231 242 252 262 269 271 273 274 273 271 272 272 269 267 267 265 261 259 259 257 251 250 251 251 253 253 250 250
330 313 298 288 282 262 232 219 214 216 214 213 218 226 237 248 255 267 273 274 275 273 272 270 271 269 268 264 260 257 258 258 258 258 258 253 254 256 256 252 250 251 250
321 308 302 274 261 252 239 221 221 220 219 221 227 234 244 256 265 270 272 273 272 269 268 270 266 265 263 263 260 256 253 249 249 250 254 252 251 252 252 248 248 253 257
327 314 302 277 250 242 242 232 227 224 225 226 231 242 253 262 269 270 271 272 270 268 266 267 268 267 263 261 257 250 246 237 238 236 238 242 232 235 232 238 241 252 260
318 309 296 299 261 240 242 244 233 230 233 234 240 251 260 271 277 278 276 276 275 275 268 265 265 268 263 256 249 238 233 233 222 215 214 226 243 249 254 255 253 259 266
325 317 307 284 273 259 237 246 243 237 235 234 241 251 262 269 271 274 274 275 275 265 264 257 258 262 258 248 238 223 208 205 199 201 218 243 252 263 266 271 275 271 271
323 317 304 288 268 245 238 238 243 239 236 236 240 250 259 267 272 275 275 275 270 260 252 248 251 260 243 224 209 196 192 202 215 219 232 251 260 277 281 276 274 276 267
325 324 320 285 262 248 246 240 244 242 237 235 237 247 260 268 275 274 273 271 257 244 240 242 251 253 225 211 205 201 206 211 222 232 244 261 274 280 280 277 276 275 282
320 322 326 302 268 251 246 240 240 241 235 233 238 248 259 267 269 266 265 257 242 236 235 240 244 233 214 207 209 218 224 230 235 242 252 259 277 282 281 276 279 285 283
322 320 321 316 289 247 242 243 247 242 235 233 237 246 257 264 263 259 256 245 237 233 232 236 235 222 214 218 221 224 232 242 248 258 268 278 280 286 287 279 279 281 278
320 313 317 312 308 277 246 243 237 238 236 238 242 251 256 256 250 247 249 240 235 234 235 237 232 221 220 225 226 233 242 249 257 266 273 279 286 293 287 285 291 284 279
311 313 306 301 297 289 261 241 249 252 250 248 250 253 253 250 244 250 245 242 241 237 238 239 227 223 226 230 237 242 248 256 262 271 274 281 290 289 283 284 285 282 275
305 310 301 288 278 283 255 233 244 259 267 262 260 258 252 250 251 253 252 249 247 245 245 243 234 233 237 242 246 248 254 258 262 264 269 276 284 284 284 285 286 283 279
308 300 299 285 271 268 263 255 254 257 261 266 267 263 257 255 254 251 250 246 244 242 245 238 234 232 239 242 249 251 253 257 260 265 270 275 279 281 279 284 289 289 289
Wind_Speed_850mb
36 42 42 26 29 31 38 37 42 39 37 42 50 44 42 33 32 34 30 27 26 23 25 26 23 24 29 28 27 30 32 36 39 44 48 46 42 35 35 38 38 35 26
57 45 44 35 31 38 39 39 41 41 40 40 40 41 38 34 31 30 33 37 38 35 33 33 31 28 31 33 34 34 39 42 42 46 46 47 42 44 26 31 39 33 29
43 55 48 42 41 41 41 43 43 41 40 42 39 36 33 31 33 32 33 39 34 31 32 35 35 37 39 42 43 46 47 52 51 52 51 31 29 23 25 22 27 30 35
16 22 42 48 47 45 44 44 43 43 39 39 38 39 38 36 33 35 38 40 35 30 33 36 39 43 45 46 49 48 52 54 56 53 50 54 53 50 31 35 36 33 36
26 14 23 39 43 48 43 42 42 46 48 47 43 40 39 35 31 33 37 36 36 35 34 37 40 43 47 49 50 48 48 47 48 48 46 46 46 47 51 50 49 42 39
37 36 31 37 38 42 42 41 37 36 41 45 49 45 41 41 42 43 43 41 38 38 37 38 42 45 47 47 46 45 45 44 45 45 42 40 38 34 36 40 43 43 41
40 40 42 39 41 46 41 42 42 37 33 37 42 44 43 40 40 38 36 36 35 37 42 43 42 43 44 45 45 45 46 47 49 48 41 37 38 39 46 47 38 43 44
7 12 22 32 52 53 52 47 45 42 37 37 44 45 38 38 40 41 38 33 35 40 47 46 43 43 45 45 46 46 45 45 44 42 37 37 41 38 45 48 47 42 37
4 13 17 28 26 42 52 53 52 48 46 44 49 48 40 44 36 36 36 39 43 44 45 46 46 45 44 44 44 43 42 42 43 42 36 36 34 34 39 36 39 41 36
14 12 11 29 32 29 40 45 46 51 46 47 47 46 40 37 39 42 41 41 43 43 44 45 45 44 43 42 40 39 39 37 37 31 23 22 25 33 29 32 29 33 32
17 24 15 13 24 31 38 39 38 48 49 51 54 51 38 41 39 36 37 39 43 45 44 43 41 41 39 37 35 36 33 30 28 25 27 28 30 30 31 30 34 36 39
24 23 20 18 19 27 35 38 41 44 44 43 41 37 31 28 28 33 37 39 41 43 41 40 39 41 38 35 33 33 29 27 25 26 29 30 31 31 31 30 36 39 36
25 23 18 18 20 20 32 36 43 44 40 41 39 34 32 32 31 34 36 38 39 42 41 40 40 41 38 35 32 33 32 30 30 29 27 24 26 26 27 29 27 27 25
28 22 23 22 22 20 23 32 39 42 42 39 36 33 30 29 29 34 37 41 42 41 41 42 40 37 36 34 32 33 34 32 32 31 30 28 28 27 25 25 24 23 23
36 35 32 27 25 27 25 29 32 39 38 37 35 32 31 31 33 37 40 41 40 41 41 37 35 36 34 35 32 31 33 30 30 28 28 26 26 25 23 19 17 18 19
37 37 35 32 31 37 36 37 38 40 39 38 35 33 33 33 34 37 40 38 36 36 35 36 35 33 32 30 30 29 28 26 25 21 21 19 16 13 12 15 17 17 14
40 40 36 35 40 42 46 43 44 43 40 38 36 35 33 34 36 37 36 30 31 30 29 30 27 30 28 28 23 25 24 21 19 18 17 15 15 12 11 10 10 11 13
42 41 38 31 37 39 46 47 44 46 44 41 37 35 34 34 36 35 32 30 29 26 27 27 28 28 26 22 20 19 20 20 19 17 14 16 15 12 10 12 12 12 10
46 45 33 30 24 23 41 49 52 48 48 44 40 38 36 36 37 32 29 29 26 24 25 26 26 27 23 19 19 19 17 15 14 12 13 15 13 11 13 15 16 13 13
51 48 39 34 35 27 35 50 56 53 52 49 43 39 37 36 37 31 29 25 22 23 25 25 25 28 21 21 19 16 17 16 14 13 13 15 15 13 17 18 17 15 14
50 47 37 27 23 23 36 49 51 52 50 45 40 39 38 36 33 29 26 23 24 26 25 25 26 23 21 20 18 17 16 16 15 14 15 14 15 17 16 17 16 14 16
46 47 37 30 24 25 39 45 49 46 41 41 41 39 37 36 29 27 26 26 28 29 28 27 26 25 23 22 20 20 18 16 16 16 16 16 16 16 15 14 15 13 15
42 49 37 30 24 18 27 32 32 35 34 37 37 37 37 33 28 27 27 30 31 32 30 30 29 29 27 24 21 20 19 19 18 17 18 19 18 17 14 14 14 13 15
42 47 42 30 23 15 13 19 22 23 27 31 35 37 35 31 30 30 29 31 33 32 34 34 32 30 29 26 23 22 23 22 21 21 21 21 19 18 18 17 17 16 17
47 43 47 35 23 18 14 17 17 15 20 26 32 33 31 31 30 31 30 30 32 33 34 33 30 32 30 21 23 23 24 24 24 27 25 24 23 22 21 21 19 19 19
51 43 48 41 37 33 28 25 24 22 24 28 27 31 29 32 31 29 26 28 33 35 37 36 37 34 32 29 28 27 27 27 28 32 29 27 26 25 23 23 23 23 23
Wind_Direction_850mb
248 218 187 203 188 193 202 215 209 208 205 202 204 209 207 211 218 207 218 219 232 234 245 246 235 243 246 250 256 269 277 275 280 284 283 284 284 282 284 283 286 287 276
240 206 203 216 228 211 200 208 221 216 215 217 217 219 216 218 228 225 223 231 231 230 236 250 254 243 256 258 262 263 270 272 275 278 281 288 289 297 295 271 265 267 265
245 217 210 216 222 217 209 205 220 225 220 222 221 220 212 219 215 221 226 237 237 233 244 252 255 259 255 257 263 267 267 273 274 277 274 282 282 279 304 284 260 268 284
282 148 207 202 210 216 214 209 201 213 219 216 214 216 221 221 230 230 233 244 249 253 258 262 265 269 271 271 273 274 271 268 269 269 266 266 271 280 285 268 270 278 278
250 245 200 213 210 212 212 210 215 217 209 215 218 224 227 227 222 229 236 248 259 264 263 268 273 276 279 281 281 279 278 276 274 272 265 264 264 269 265 273 272 271 272
236 230 236 219 222 216 217 213 213 220 228 224 221 228 230 231 238 240 246 251 257 264 268 272 276 278 278 277 277 278 278 278 277 276 273 262 258 264 264 270 269 269 268
226 229 230 235 227 232 228 225 221 222 226 230 231 227 224 234 241 242 244 250 259 268 273 278 280 278 276 276 277 278 279 279 277 280 276 271 265 259 265 272 268 273 269
278 248 222 232 228 236 239 230 224 225 224 226 228 225 232 232 234 234 239 250 261 266 277 282 280 277 278 280 280 280 280 277 277 274 266 265 259 252 253 260 263 265 269
304 250 263 258 229 230 240 234 233 234 231 227 222 221 227 252 233 240 253 261 265 268 273 275 277 279 280 281 281 281 277 274 272 276 272 270 267 258 261 261 262 260 238
19 350 256 256 254 228 237 241 237 231 222 219 222 223 222 233 245 249 251 258 267 271 273 275 277 279 280 281 282 279 275 269 268 267 262 267 264 255 257 246 255 249 241
356 342 315 272 260 223 230 240 225 224 218 215 214 219 221 222 227 244 259 268 274 275 275 277 278 278 278 279 279 279 280 274 266 258 253 252 249 252 258 257 252 255 261
353 330 319 296 277 224 226 218 208 217 224 222 221 221 225 234 241 250 258 264 267 272 274 276 275 275 275 275 273 274 274 272 266 255 245 245 247 247 251 251 247 247 250
341 328 310 300 266 250 220 215 212 221 220 212 211 218 226 231 242 252 262 269 271 273 274 273 271 272 272 269 267 267 265 261 259 259 257 251 250 251 251 253 253 250 250
330 313 298 288 282 262 232 219 214 216 214 213 218 226 237 248 255 267 273 274 275 273 272 270 271 269 268 264 260 257 258 258 258 258 258 253 254 256 256 252 250 251 250
321 308 302 274 261 252 239 221 221 220 219 221 227 234 244 256 265 270 272 273 272 269 268 270 266 265 263 263 260 256 253 249 249 250 254 252 251 252 252 248 248 253 257
327 314 302 277 250 242 242 232 227 224 225 226 231 242 253 262 269 270 271 272 270 268 266 267 268 267 263 261 257 250 246 237 238 236 238 242 232 235 232 238 241 252 260
318 309 296 299 261 240 242 244 233 230 233 234 240 251 260 271 277 278 276 276 275 275 268 265 265 268 263 256 249 238 233 233 222 215 214 226 243 249 254 255 253 259 266
325 317 307 284 273 259 237 246 243 237 235 234 241 251 262 269 271 274 274 275 275 265 264 257 258 262 258 248 238 223 208 205 199 201 218 243 252 263 266 271 275 271 271
323 317 304 288 268 245 238 238 243 239 236 236 240 250 259 267 272 275 275 275 270 260 252 248 251 260 243 224 209 196 192 202 215 219 232 251 260 277 281 276 274 276 267
325 324 320 285 262 248 246 240 244 242 237 235 237 247 260 268 275 274 273 271 257 244 240 242 251 253 225 211 205 201 206 211 222 232 244 261 274 280 280 277 276 275 282
320 322 326 302 268 251 246 240 240 241 235 233 238 248 259 267 269 266 265 257 242 236 235 240 244 233 214 207 209 218 224 230 235 242 252 259 277 282 281 276 279 285 283
322 320 321 316 289 247 242 243 247 242 235 233 237 246 257 264 263 259 256 245 237 233 232 236 235 222 214 218 221 224 232 242 248 258 268 278 280 286 287 279 279 281 278
320 313 317 312 308 277 246 243 237 238 236 238 242 251 256 256 250 247 249 240 235 234 235 237 232 221 220 225 226 233 242 249 257 266 273 279 286 293 287 285 291 284 279
311 313 306 301 297 289 261 241 249 252 250 248 250 253 253 250 244 250 245 242 241 237 238 239 227 223 226 230 237 242 248 256 262 271 274 281 290 289 283 284 285 282 275
305 310 301 288 278 283 255 233 244 259 267 262 260 258 252 250 251 253 252 249 247 245 245 243 234 233 237 242 246 248 254 258 262 264 269 276 284 284 284 285 286 283 279
308 300 299 285 271 268 263 255 254 257 261 266 267 263 257 255 254 251 250 246 244 242 245 238 234 232 239 242 249 251 253 257 260 265 270 275 279 281 279 284 289 289 289